User: anonymous   Login
Location: ???? ??????? ????
(31.2176°N, 31.6797°E)
Time: 10:47:23
(UTC+00:00)
Language:

YAOGAN 1 - Orbit

View from above orbital plane
View from above orbital plane
View from above satellite
View from above satellite

Ground track
Ground track

The orbit data is extracted from the following two-line orbital elements,

1 29092U 06015A   21023.05950179  .00000073  00000-0  15493-4 0  9994
2 29092  97.9231  51.7880 0001392  92.5604 267.5768 14.83123063797381
Epoch (UTC): 23 January 2021 01:25:40
Eccentricity: 0.0001392
inclination: 97.9231°
perigee height: 618 km
apogee height: 620 km
right ascension of ascending node: 51.7880°
argument of perigee: 92.5604°
revolutions per day: 14.83123063
mean anomaly at epoch: 267.5768°
orbit number at epoch: 79738

The dashed part of the orbit path shows where the satellite is in the earth's shadow,  

DLR